This is the latest recevied weather packets stored in our database for station/object WV5G-13. If no packets are shown the sender has not sent any weather packets the latest 10 day(s).
| Time | Temp. | Humidity | Pressure | Rain* | Wind** | Luminosity | Snow |
|---|---|---|---|---|---|---|---|
| 1777672442 | 11.67° C | 69% | 1017.1 hPa | 0 mm | - | 247 W/m² | - |
| 1777672137 | 11.67° C | 71% | 1017.2 hPa | 0 mm | - | 233 W/m² | - |
| 1777671832 | 11.67° C | 71% | 1017.5 hPa | 0 mm | - | 243 W/m² | - |
| 1777671528 | 11.67° C | 72% | 1017.6 hPa | 0 mm | - | 256 W/m² | - |
| 1777671225 | 11.11° C | 71% | 1017.5 hPa | 0 mm | - | 256 W/m² | - |
| 1777670921 | 11.11° C | 72% | 1017.5 hPa | 0 mm | - | 269 W/m² | - |
| 1777670618 | 11.11° C | 71% | 1017.7 hPa | 0 mm | - | 243 W/m² | - |
| 1777670315 | 11.11° C | 72% | 1017.6 hPa | 0 mm | - | 230 W/m² | - |
| 1777670012 | 11.11° C | 70% | 1017.8 hPa | 0 mm | - | 225 W/m² | - |
| 1777669708 | 10.56° C | 69% | 1017.7 hPa | 0 mm | - | 195 W/m² | - |
| 1777669406 | 11.11° C | 72% | 1017.8 hPa | 0 mm | - | 190 W/m² | - |
| 1777669097 | 11.11° C | 71% | 1017.8 hPa | 0 mm | - | 174 W/m² | - |
| 1777668794 | 11.11° C | 71% | 1017.8 hPa | 0 mm | - | 154 W/m² | - |
| 1777668490 | 11.11° C | 70% | 1017.9 hPa | 0 mm | - | 154 W/m² | - |
| 1777668187 | 11.11° C | 70% | 1018 hPa | 0 mm | - | 166 W/m² | - |
| 1777667883 | 11.67° C | 70% | 1018.1 hPa | 0 mm | - | 190 W/m² | - |
| 1777667581 | 11.11° C | 68% | 1018 hPa | 0 mm | - | 221 W/m² | - |
| 1777667277 | 11.11° C | 67% | 1018.1 hPa | 0 mm | - | 192 W/m² | - |
| 1777666974 | 11.11° C | 69% | 1017.9 hPa | 0 mm | - | 169 W/m² | - |
| 1777666671 | 11.67° C | 68% | 1017.9 hPa | 0 mm | - | 160 W/m² | - |
| 1777666368 | 11.67° C | 66% | 1018.1 hPa | 0 mm | - | 172 W/m² | - |
| 1777666065 | 11.67° C | 64% | 1017.9 hPa | 0 mm | - | 189 W/m² | - |
| 1777665762 | 11.67° C | 62% | 1018 hPa | 0 mm | - | 192 W/m² | - |
| 1777665459 | 11.67° C | 61% | 1018 hPa | 0 mm | - | 172 W/m² | - |
| 1777665155 | 11.67° C | 60% | 1017.8 hPa | 0 mm | - | 206 W/m² | - |
* Rain latest hour (hover to see other rain measurements)
** Current wind speed in m/s (hover to see current wind gust speed)